Powrót do katalogu

FENGYUN 1C DEB

AktywnyPO
NORAD 37053·DEBRIS·🇨🇳 China

Wystrzelony May 10, 1999 z Taiyuan Satellite Launch Center

Loading…

Następne Przeloty (najbliższe 24 godziny)

TLE

ŚwieżeSource: Space-Track

Epoka: Sep 14, 2026, 05:26 UTC

1 37053U 99025EEM 26257.22657587  .00003511  00000-0  78631-3 0  9995
2 37053  99.1613  34.3568 0040370  63.5125  55.9954 14.56890249690453

Śledź FENGYUN 1C DEB w czasie rzeczywistym z AllMySat

Download on the App Store